User: anonymous   Login
Location: Unspecified
(0.0000°N, 0.0000°E)
Time: 05:17:02
(UTC+00:00)
Language:

UWE-3 - Orbit

View from above orbital plane
View from above orbital plane
View from above satellite
View from above satellite

Ground track
Ground track

The orbit data is extracted from the following two-line orbital elements,

1 39446U 13066AG  19083.18760127  .00000176  00000-0  30159-4 0  9991
2 39446  97.5838  93.6452 0069576 343.6017  16.2944 14.78345507286482
Epoch (UTC): 24 March 2019 04:30:08
Eccentricity: 0.0069576
inclination: 97.5838°
perigee height: 586 km
apogee height: 683 km
right ascension of ascending node: 93.6452°
argument of perigee: 343.6017°
revolutions per day: 14.78345507
mean anomaly at epoch: 16.2944°
orbit number at epoch: 28648

The dashed part of the orbit path shows where the satellite is in the earth's shadow,  

DLR